Home   Weather   Birmingham   Past weeks

Flag for USA Past Weather in Birmingham, Alabama, USA — Yesterday and Last 2 Weeks

Now
75 °F

Partly sunny.


Feels Like: 76 °F
Forecast: 69 / 86 °F
Wind: 3 mph from North

Location: Birmingham International Airport

Current Time: Sep 27, 2016 at 12:16:04 PM

Latest Report: Sep 27, 2016 at 10:53 AM


Visibility: 10 mi

Pressure: 29.99 "Hg

Humidity: 76%

Dew Point: 67 °F

Location of BirminghamLocation

Past Weather in Birmingham — Graph

°F

Birmingham Temperature Yesterday

Maximum temperature yesterday: 94 °F (at 2:53 PM)
Minimum temperature yesterday: 72 °F (at 6:53 AM)
Average temperature yesterday: 81 °F

High & Low Weather Summary for the Past Weeks

 TemperatureHumidityPressure
High97 °F (Sep 15, 1:53 PM)97% (Sep 18, 4:53 AM)30.16 "Hg (Sep 18, 4:53 AM)
Low66 °F (Sep 20, 5:53 AM)22% (Sep 25, 4:53 PM)29.93 "Hg (Sep 18, 3:53 PM)
Average81 °F63%30.04 "Hg
* Reported Sep 12 10:53 AM — Sep 27 10:53 AM, Birmingham, Weather by CustomWeather, © 2016

Note: Actual official high and low records may vary slightly from our data, if they occured in-between our weather recording intervals... More about our weather records

Advertising

Birmingham Weather History for the Previous 24 Hours

Scroll right to see more
 ConditionsComfort  
Time TempWeatherWind HumidityBarometerVisibility
10:53 AM
Tue, Sep 27
75 °FPartly sunny.3 mph76%29.99 "Hg10 mi
9:53 AM71 °FLow clouds.6 mph84%30.01 "Hg6 mi
8:53 AM68 °FFog.5 mph93%29.99 "Hg2 mi
7:53 AM67 °FFog.6 mph97%29.98 "Hg2 mi
7:03 AM66 °FPartly sunny.6 mph96%30.00 "Hg9 mi
6:53 AM66 °FPartly sunny.5 mph96%29.98 "Hg10 mi
5:53 AM67 °FPassing clouds.5 mph93%29.98 "Hg10 mi
4:53 AM68 °FPassing clouds.3 mph93%29.97 "Hg10 mi
3:53 AM69 °FClear.3 mph90%29.96 "Hg10 mi
2:53 AM70 °FClear.6 mph90%29.97 "Hg10 mi
1:53 AM73 °FClear.6 mph79%29.98 "Hg10 mi
12:53 AM73 °FClear.3 mph79%29.99 "Hg10 mi
11:53 PM
Mon, Sep 26
75 °FPassing clouds.7 mph74%30.00 "Hg10 mi
10:53 PM74 °FPassing clouds.6 mph79%30.01 "Hg10 mi
9:53 PM79 °FPassing clouds.3 mph62%30.00 "Hg10 mi
8:53 PM80 °FPassing clouds.3 mph60%30.00 "Hg10 mi
7:53 PM80 °FOvercast.5 mph62%29.99 "Hg10 mi
6:53 PM80 °FPartly cloudy.3 mph67%29.97 "Hg10 mi
5:53 PM80 °FBroken clouds.6 mph67%29.96 "Hg10 mi
4:53 PM81 °FMore clouds than sun.5 mph60%29.96 "Hg10 mi
3:53 PM84 °FMore clouds than sun.18 mph53%29.96 "Hg10 mi
2:53 PM94 °FBroken clouds.3 mph32%29.93 "Hg10 mi
1:53 PM92 °FPartly sunny.5 mph35%29.96 "Hg10 mi
12:53 PM92 °FScattered clouds.3 mph36%30.00 "Hg10 mi
Weather by CustomWeather, © 2016

See weather overviewHow to use our weather pages